Simultaneous Nadir Overpasses (SNOs) Predictions

Prediction of SNOs between AQUA and METOP-B Satellite Orbit:

Table of predicted SNOs for the next 14.0 days since TLE Epoch: 7/19/2019
Index Date (AQUA) Time (AQUA) Lat,Lon (AQUA) SZA (AQUA ) Date (METOP-B) Time (METOP-B) Lat,Lon (METOP-B) SZA (METOP-B ) Distance(km) Time Diff (sec)
1 07/20/2019 22:43:20 -73.84, 13.39 126.67 07/20/2019 22:42:58 -73.85, 13.37 126.66 1.52 22
2 07/20/2019 23:32:48 73.89,-179.09 53.39 07/20/2019 23:33:37 73.90,-179.17 53.40 3.02 49
3 07/23/2019 17:27:58 73.25, -86.57 53.25 07/23/2019 17:26:51 73.24, -88.95 53.36 76.22 67
4 07/23/2019 18:17:36 -73.88, 79.74 126.07 07/23/2019 18:17:20 -73.87, 79.82 126.08 2.63 16
5 07/23/2019 19:07:04 73.93,-112.74 54.00 07/23/2019 19:07:59 73.92,-112.72 53.98 1.37 55
6 07/26/2019 13:02:19 73.56, -20.78 54.18 07/26/2019 13:01:08 73.50, -21.95 54.19 37.48 71
7 07/26/2019 13:51:51 -73.87, 146.19 125.48 07/26/2019 13:51:42 -73.88, 146.26 125.47 2.49 9
8 07/26/2019 14:41:19 73.92, -46.29 54.59 07/26/2019 14:42:21 73.93, -46.28 54.59 1.07 62
9 07/29/2019 08:36:37 73.77, 45.22 55.05 07/29/2019 08:35:24 73.77, 45.07 55.07 4.71 73
10 07/29/2019 09:26:05 -73.86,-147.36 124.84 07/29/2019 09:26:04 -73.85,-147.42 124.86 2.73 1
11 07/29/2019 10:15:33 73.92, 20.16 55.23 07/29/2019 10:16:42 73.94, 20.15 55.24 2.85 69
12 08/01/2019 04:10:53 73.82, 111.54 55.78 08/01/2019 04:09:45 73.82, 111.62 55.80 2.48 68
13 08/01/2019 05:00:20 -73.86, -80.92 124.16 08/01/2019 05:00:26 -73.86, -80.98 124.16 1.90 6




NCC Satellite Simultaneous Nadir Overpasses (SNOs) Prediction Service
